Change the Weather History Date:

Tuesday, August 19, 2014

  Actual Average Record
Temperature  
Mean Temperature 82 °F 80 °F  
Max Temperature 97 °F 91 °F 111 °F (1936)
Min Temperature 67 °F 68 °F 53 °F (1953)
Degree Days  
Heating Degree Days 0 0  
Month to date heating degree days 0 0  
Since 1 June heating degree days 1 7  
Since 1 July heating degree days 0 0  
Cooling Degree Days 17 15  
Month to date cooling degree days 296 296  
Year to date cooling degree days 1328 1250  
Since 1 June cooling degree days 1096 1122  
Growing Degree Days 32 (Base 50)    
Moisture  
Dew Point 64 °F    
Average Humidity 55    
Maximum Humidity 79    
Minimum Humidity 31    
Precipitation  
Precipitation T in 0.12 in 1.55 in (2006)
Month to date precipitation 2.07 2.50  
Year to date precipitation 18.38 22.89  
Sea Level Pressure  
Sea Level Pressure 29.78 in    
Wind  
Wind Speed 9 mph (South)    
Max Wind Speed 20 mph    
Max Gust Speed 24 mph    
Visibility 10 miles    
Events Rain , Thunderstorm    
T = Trace of Precipitation, MM = Missing Value Source: NWS Daily Summary

Daily Weather History Graph

Daily Weather History Graph

Search for Another Location

Airport or City:

Trip Planner

Search our weather history database for the weather conditions in past years. The results will help you decide how hot, cold, wet, or windy it might be!

Date:

Astronomy

Aug. 19, 2014 Rise Set
Actual Time 6:47 AM CDT 8:19 PM CDT
Civil Twilight 6:19 AM CDT 8:47 PM CDT
Nautical Twilight 5:45 AM CDT 9:21 PM CDT
Astronomical Twilight 5:10 AM CDT 9:57 PM CDT
Moon 1:42 AM CDT (8/19) 4:16 PM CDT (8/19)
Length of Visible Light 14h 27m
Length of Day
13h 31m
Waning Crescent, 29% of the Moon is Illuminated
Aug 19
Waning Crescent
Aug 25
New
Sep 2
First Quarter
Sep 8
Full
Sep 15
Last Quarter

Hourly Weather History & Observations

Time (CDT) Temp. Heat Index Dew Point Humidity Pressure Visibility Wind Dir Wind Speed Gust Speed Precip Events Conditions
12:11 AM 79.0 °F - 66.0 °F 64% 29.78 in 10.0 mi SSW 12.7 mph - N/A Thunderstorm Thunderstorm
12:53 AM 75.0 °F - 63.0 °F 66% 29.81 in 8.0 mi NW 20.7 mph 40.3 mph 0.03 in Rain , Thunderstorm Light Thunderstorms and Rain
1:00 AM 73.9 °F - 63.0 °F 68% 29.83 in 10.0 mi NNW 10.4 mph 32.2 mph 0.00 in Rain , Thunderstorm Light Thunderstorms and Rain
1:12 AM 73.9 °F - 63.0 °F 68% 29.83 in 10.0 mi NNE 9.2 mph - 0.00 in Thunderstorm Mostly Cloudy
1:42 AM 73.0 °F - 63.0 °F 71% 29.83 in 10.0 mi North 8.1 mph - 0.00 in   Partly Cloudy
1:53 AM 73.0 °F - 64.0 °F 73% 29.78 in 10.0 mi NW 5.8 mph - 0.00 in   Partly Cloudy
2:53 AM 71.1 °F - 64.0 °F 78% 29.79 in 10.0 mi SSW 17.3 mph - N/A   Partly Cloudy
3:53 AM 71.1 °F - 63.0 °F 75% 29.79 in 10.0 mi South 5.8 mph - N/A   Clear
4:53 AM 71.1 °F - 62.1 °F 73% 29.78 in 10.0 mi West 3.5 mph - N/A   Clear
5:53 AM 70.0 °F - 62.1 °F 76% 29.78 in 10.0 mi WNW 3.5 mph - N/A   Clear
6:53 AM 68.0 °F - 61.0 °F 78% 29.79 in 10.0 mi NNW 6.9 mph - N/A   Clear
7:53 AM 71.1 °F - 63.0 °F 75% 29.81 in 10.0 mi NNW 6.9 mph - N/A   Clear
8:53 AM 75.9 °F - 64.0 °F 67% 29.81 in 10.0 mi NNW 4.6 mph - N/A   Clear
9:53 AM 82.0 °F 84.5 °F 66.9 °F 60% 29.80 in 10.0 mi NE 11.5 mph - N/A   Partly Cloudy
10:53 AM 84.9 °F 89.4 °F 70.0 °F 61% 29.82 in 10.0 mi ESE 6.9 mph - N/A   Clear
11:53 AM 87.1 °F 89.9 °F 66.9 °F 51% 29.83 in 10.0 mi South 9.2 mph - N/A   Clear
12:53 PM 90.0 °F 91.7 °F 64.9 °F 43% 29.81 in 10.0 mi SSE 11.5 mph - N/A   Clear
1:53 PM 93.0 °F 93.8 °F 62.1 °F 36% 29.80 in 10.0 mi South 8.1 mph - N/A   Clear
2:53 PM 93.9 °F 94.0 °F 61.0 °F 33% 29.77 in 10.0 mi South 8.1 mph - N/A   Clear
3:53 PM 95.0 °F 94.8 °F 60.1 °F 31% 29.74 in 10.0 mi SSE 11.5 mph - N/A   Clear
4:53 PM 95.0 °F 96.0 °F 63.0 °F 34% 29.73 in 10.0 mi South 12.7 mph - N/A   Clear
5:53 PM 93.0 °F 95.9 °F 66.0 °F 41% 29.73 in 10.0 mi SSE 11.5 mph - N/A   Clear
6:53 PM 93.0 °F 97.4 °F 68.0 °F 44% 29.71 in 10.0 mi SSE 12.7 mph - N/A   Clear
7:53 PM 88.0 °F 90.3 °F 66.0 °F 48% 29.72 in 10.0 mi South 9.2 mph - N/A   Clear
8:53 PM 82.9 °F 85.8 °F 68.0 °F 60% 29.73 in 10.0 mi SSE 6.9 mph - N/A   Clear
9:53 PM 82.0 °F 84.9 °F 68.0 °F 62% 29.74 in 10.0 mi SSE 9.2 mph - N/A   Clear
10:53 PM 81.0 °F 83.3 °F 66.9 °F 62% 29.74 in 10.0 mi South 11.5 mph - N/A   Clear
11:53 PM 80.1 °F 82.3 °F 66.9 °F 64% 29.76 in 10.0 mi South 11.5 mph - N/A   Clear